Terminal Aerodrome Forecast
Issued by NWS

Home | Current Version | Previous Version | Text Only | Print | Product List | Glossary On
Versions: 1 2 3 4 5 6 7 8 9 10 11 12 13 14 15 16 17 18 19 20 21 22 23 24 25 26 27
000
FTPA31 PHFO 051700
TAFKOA
TAF
PHKO 051733Z 0518/0618 12005KT P6SM FEW060
     FM051900 20009KT P6SM SCT050
     FM060200 23009KT P6SM VCSH BKN035 BKN060
     FM060600 09006KT P6SM SCT035 SCT060=

USA.gov is the U.S. government's official web portal to all federal, state and local government web resources and services.